EN

Hourly Weather Alitub

Today, 20 January, Wednesday

Time Temperature Precipitation Wind Pressure Humidity
00:00 -17°C° 0 mm 2 mps 766 mmHg 91%
01:00 -18°C° 0 mm 2 mps 766 mmHg 91%
02:00 -16°C° 0 mm 1 mps 766 mmHg 92%
03:00 -16°C° 0 mm 1 mps 766 mmHg 92%
04:00 -16°C° 0 mm 1 mps 767 mmHg 92%
05:00 -16°C° 0 mm 1 mps 767 mmHg 92%
06:00 -16°C° 0 mm 1 mps 767 mmHg 92%
07:00 -16°C° 0 mm 1 mps 767 mmHg 92%
08:00 -16°C° 0 mm 1 mps 768 mmHg 92%
09:00 -15°C° 0 mm 1 mps 768 mmHg 92%
10:00 -14°C° 0 mm 1 mps 768 mmHg 90%
11:00 -13°C° 0 mm 1 mps 768 mmHg 87%
12:00 -12°C° 0 mm 1 mps 769 mmHg 85%
13:00 -11°C° 0 mm 1 mps 769 mmHg 85%
14:00 -11°C° 0 mm 1 mps 769 mmHg 85%
15:00 -11°C° 0 mm 1 mps 769 mmHg 85%
16:00 -12°C° 0 mm 1 mps 769 mmHg 87%
17:00 -13°C° 0 mm 1 mps 770 mmHg 89%
18:00 -15°C° 0 mm 1 mps 770 mmHg 91%
19:00 -15°C° 0 mm 1 mps 770 mmHg 91%
20:00 -16°C° 0 mm 0 mps 770 mmHg 91%
21:00 -16°C° 0 mm 0 mps 770 mmHg 91%
22:00 -16°C° 0 mm 0 mps 771 mmHg 91%
23:00 -17°C° 0 mm 0 mps 771 mmHg 91%

Tomorrow, 21 January, Thursday

Time Temperature Precipitation Wind Pressure Humidity
00:00 -17°C° 0 mm 0 mps 772 mmHg 90%
01:00 -17°C° 0 mm 0 mps 772 mmHg 91%
02:00 -17°C° 0 mm 0 mps 772 mmHg 91%
03:00 -17°C° 0 mm 0 mps 772 mmHg 91%
04:00 -17°C° 0 mm 0 mps 772 mmHg 91%
05:00 -17°C° 0 mm 1 mps 772 mmHg 91%
06:00 -17°C° 0 mm 1 mps 772 mmHg 91%
07:00 -17°C° 0 mm 1 mps 772 mmHg 91%
08:00 -17°C° 0 mm 1 mps 772 mmHg 90%
09:00 -16°C° 0 mm 1 mps 773 mmHg 90%
10:00 -15°C° 0 mm 1 mps 773 mmHg 89%
11:00 -13°C° 0 mm 1 mps 773 mmHg 87%
12:00 -11°C° 0 mm 1 mps 773 mmHg 86%
13:00 -10°C° 0 mm 1 mps 772 mmHg 87%
14:00 -10°C° 0 mm 1 mps 772 mmHg 87%
15:00 -9°C° 0 mm 1 mps 771 mmHg 88%
16:00 -12°C° 0 mm 2 mps 771 mmHg 90%
17:00 -13°C° 0 mm 2 mps 772 mmHg 91%
18:00 -14°C° 0 mm 2 mps 772 mmHg 92%
19:00 -13°C° 0 mm 2 mps 771 mmHg 93%
20:00 -13°C° 0 mm 2 mps 771 mmHg 94%
21:00 -11°C° 0 mm 1 mps 771 mmHg 95%
22:00 -9°C° 0 mm 1 mps 771 mmHg 95%
23:00 -8°C° 0 mm 1 mps 770 mmHg 96%

Day after tomorrow, 22 January, Friday

Time Temperature Precipitation Wind Pressure Humidity
00:00 -7°C° 0 mm 1 mps 770 mmHg 96%
01:00 -6°C° 0.1 mm 1 mps 770 mmHg 96%
02:00 -5°C° 0.1 mm 2 mps 769 mmHg 96%
03:00 -3°C° 0.1 mm 2 mps 769 mmHg 97%
04:00 -2°C° 0 mm 2 mps 769 mmHg 97%
05:00 -1°C° 0 mm 3 mps 769 mmHg 97%
06:00 -1°C° 0 mm 4 mps 769 mmHg 97%
07:00 0°C° 0 mm 4 mps 769 mmHg 96%
08:00 0°C° 0 mm 4 mps 769 mmHg 96%
09:00 0°C° 0 mm 4 mps 769 mmHg 96%
10:00 0°C° 0 mm 4 mps 769 mmHg 97%
11:00 0°C° 0 mm 4 mps 769 mmHg 98%
12:00 0°C° 0 mm 4 mps 769 mmHg 99%
13:00 0°C° 0 mm 4 mps 769 mmHg 99%
14:00 0°C° 0 mm 4 mps 769 mmHg 99%
15:00 0°C° 0 mm 4 mps 768 mmHg 99%
16:00 0°C° 0 mm 4 mps 768 mmHg 98%
17:00 0°C° 0 mm 4 mps 768 mmHg 98%
18:00 0°C° 0 mm 4 mps 769 mmHg 97%
19:00 0°C° 0 mm 4 mps 769 mmHg 98%
20:00 0°C° 0 mm 4 mps 769 mmHg 98%
21:00 -1°C° 0 mm 4 mps 769 mmHg 98%
22:00 0°C° 0 mm 3 mps 769 mmHg 96%
23:00 0°C° 0 mm 3 mps 769 mmHg 95%

23 January, Saturday

Time Temperature Precipitation Wind Pressure Humidity
00:00 -1°C° 0 mm 3 mps 768 mmHg 94%
01:00 -1°C° 0 mm 3 mps 768 mmHg 91%
02:00 -2°C° 0 mm 3 mps 768 mmHg 88%
03:00 -2°C° 0 mm 3 mps 768 mmHg 85%
04:00 -2°C° 0 mm 3 mps 768 mmHg 83%
05:00 -2°C° 0 mm 3 mps 768 mmHg 82%
06:00 -2°C° 0 mm 2 mps 768 mmHg 80%
07:00 -2°C° 0 mm 2 mps 768 mmHg 79%
08:00 -2°C° 0 mm 2 mps 768 mmHg 79%
09:00 -2°C° 0 mm 2 mps 768 mmHg 78%
10:00 -1°C° 0 mm 2 mps 768 mmHg 82%
11:00 +1°C° 0 mm 2 mps 768 mmHg 85%
12:00 +2°C° 0 mm 2 mps 768 mmHg 88%
13:00 +2°C° 0 mm 2 mps 767 mmHg 88%
14:00 +2°C° 0 mm 2 mps 767 mmHg 87%
15:00 +2°C° 0 mm 2 mps 767 mmHg 86%
16:00 +1°C° 0 mm 2 mps 767 mmHg 83%
17:00 +1°C° 0 mm 2 mps 767 mmHg 81%
18:00 -1°C° 0 mm 3 mps 767 mmHg 79%
19:00 -1°C° 0 mm 3 mps 767 mmHg 78%
20:00 -1°C° 0 mm 3 mps 767 mmHg 78%
21:00 -1°C° 0 mm 3 mps 767 mmHg 78%
22:00 -2°C° 0 mm 3 mps 767 mmHg 78%
23:00 -2°C° 0 mm 3 mps 767 mmHg 79%

24 January, Sunday

Time Temperature Precipitation Wind Pressure Humidity
00:00 -2°C° 0 mm 3 mps 766 mmHg 79%
01:00 -2°C° 0 mm 3 mps 766 mmHg 79%
02:00 -2°C° 0 mm 2 mps 766 mmHg 78%
03:00 -2°C° 0 mm 2 mps 766 mmHg 78%
04:00 -2°C° 0 mm 2 mps 766 mmHg 79%
05:00 -2°C° 0 mm 3 mps 766 mmHg 79%
06:00 -4°C° 0 mm 3 mps 765 mmHg 79%
07:00 -2°C° 0 mm 3 mps 766 mmHg 80%
08:00 -2°C° 0 mm 3 mps 766 mmHg 82%
09:00 -2°C° 0 mm 3 mps 766 mmHg 83%
10:00 -1°C° 0 mm 3 mps 765 mmHg 85%
11:00 -2°C° 0 mm 4 mps 765 mmHg 86%
12:00 -1°C° 0 mm 4 mps 765 mmHg 88%
13:00 -1°C° 0 mm 4 mps 764 mmHg 90%
14:00 -1°C° 0 mm 4 mps 764 mmHg 91%
15:00 -1°C° 0 mm 4 mps 763 mmHg 92%
16:00 -1°C° 0 mm 4 mps 763 mmHg 94%
17:00 -2°C° 0 mm 4 mps 763 mmHg 95%
18:00 -2°C° 0 mm 5 mps 763 mmHg 96%
19:00 -2°C° 0 mm 4 mps 763 mmHg 95%
20:00 -2°C° 0 mm 4 mps 763 mmHg 94%
21:00 -2°C° 0 mm 4 mps 763 mmHg 94%
22:00 -2°C° 0 mm 4 mps 762 mmHg 92%
23:00 -2°C° 0 mm 4 mps 762 mmHg 91%

25 January, Monday

Time Temperature Precipitation Wind Pressure Humidity
00:00 -2°C° 0 mm 3 mps 762 mmHg 90%
01:00 -2°C° 0 mm 3 mps 762 mmHg 89%
02:00 -2°C° 0 mm 3 mps 762 mmHg 88%
03:00 -2°C° 0 mm 2 mps 762 mmHg 88%
04:00 -1°C° 0 mm 2 mps 762 mmHg 86%
05:00 -1°C° 0 mm 2 mps 762 mmHg 84%
06:00 -1°C° 0 mm 2 mps 762 mmHg 83%
07:00 +1°C° 0 mm 2 mps 762 mmHg 83%
08:00 +1°C° 0 mm 2 mps 762 mmHg 84%
09:00 +2°C° 0 mm 2 mps 762 mmHg 85%
10:00 +2°C° 0 mm 2 mps 762 mmHg 88%
11:00 +3°C° 0 mm 2 mps 762 mmHg 92%
12:00 +3°C° 0 mm 2 mps 762 mmHg 95%
13:00 +3°C° 0 mm 2 mps 762 mmHg 95%
14:00 +4°C° 0 mm 2 mps 762 mmHg 95%
15:00 +3°C° 0 mm 3 mps 762 mmHg 94%
16:00 +2°C° 0 mm 3 mps 762 mmHg 92%
17:00 +2°C° 0 mm 3 mps 762 mmHg 90%
18:00 +1°C° 0 mm 3 mps 762 mmHg 88%
19:00 +1°C° 0 mm 3 mps 761 mmHg 87%
20:00 0°C° 0 mm 4 mps 761 mmHg 85%
21:00 0°C° 0 mm 4 mps 761 mmHg 83%
22:00 0°C° 0 mm 4 mps 761 mmHg 83%
23:00 0°C° 0 mm 4 mps 760 mmHg 82%
Show more